Location: Northam
(31.6525°S, 116.6655°E)
Time: 00:02:27
(UTC+08:00)

Hubble Space Telescope - Pass Details

Date: 23 May 2021
Orbit: 535 x 539 km, 28.5° (Epoch: 19 June)

Event Time Altitude Azimuth Distance (km) Brightness Sun altitude
Rises 18:11:59 0° 273° (W) 2,689 6.1 -11.0°
Reaches altitude 10° 18:14:17 10° 278° (W) 1,798 4.9 -11.5°
Maximum altitude 18:18:20 51° 354° (N) 681 1.4 -12.3°
Enters shadow 18:21:47 14° 68° (ENE) 1,573 2.7 -13.0°
